Location: Saint Louis
(38.6272°N, 90.1978°W)
Time: 03:11:42
(UTC-05:00)

HST - Visible Passes

Search period start: 01 October 2014 00:00
Search period end: 11 October 2014 00:00
Orbit: 547 x 551 km, 28.5° (Epoch: 30 September)

Date Brightness Start Highest point End Pass type
(mag) Time Alt. Az. Time Alt. Az. Time Alt. Az.
07 Oct 3.4 04:53:30 11° SSE 04:53:30 11° SSE 04:54:29 10° SE visible
07 Oct 2.8 06:30:49 10° SW 06:33:49 19° S 06:36:50 10° SE visible
08 Oct 3.4 04:46:53 13° SSE 04:46:53 13° SSE 04:47:54 10° SE visible
08 Oct 2.7 06:23:29 10° SW 06:26:34 20° S 06:29:38 10° SE visible
09 Oct 3.4 04:40:13 13° SE 04:40:13 13° SE 04:41:02 10° SE visible
09 Oct 2.7 06:16:13 10° SW 06:19:18 20° S 06:22:23 10° SE visible
10 Oct 3.6 04:33:32 12° SE 04:33:32 12° SE 04:34:00 10° SE visible
10 Oct 2.7 06:09:05 10° SW 06:12:01 20° S 06:15:04 10° SE visible
